Location: Alma
(38.7220°N, 88.9090°W)
Time: 18:20:42
(UTC-06:00)

Vanguard 2 Rocket - Pass Details

Date: 24 November 2019
Orbit: 554 x 3326 km, 32.9° (Epoch: 05 December)

Event Time Altitude Azimuth Distance (km) Brightness Sun altitude
Rises 02:25:48 0° 264° (W) 2,753 - -50.5°
Reaches altitude 10° 02:27:54 10° 255° (WSW) 1,938 - -50.1°
Maximum altitude 02:31:51 37° 186° (S) 1,111 - -49.4°
Drops below altitude 10° 02:37:26 10° 121° (ESE) 2,753 - -48.3°
Exits shadow 02:37:41 - 120° (ESE) 2,847 9.8 -48.2°
Sets 02:41:00 0° 114° (ESE) 4,119 10.8 -47.6°
